Time,TemperatureF,DewpointF,PressureIn,WindDirection,WindDirectionDegrees,WindSpeedMPH,WindSpeedGustMPH,Humidity,HourlyPrecipIn,Conditions,Clouds,dailyrainin,SoftwareType,DateUTC
2013-02-28 00:02:00,32.0,30.0,29.53,SSE,161,4.0,-999.0,92,-99.99,,,-99.99,,2013-02-28 05:02:00,
2013-02-28 00:11:00,32.0,30.0,29.53,SSE,161,4.0,-999.0,92,-99.99,,,-99.99,,2013-02-28 05:11:00,
2013-02-28 00:22:00,32.0,30.0,29.53,SW,216,6.0,-999.0,91,-99.99,,,-99.99,,2013-02-28 05:22:00,
2013-02-28 00:32:00,32.0,30.0,29.52,SSW,202,5.0,-999.0,91,-99.99,,,-99.99,,2013-02-28 05:32:00,
2013-02-28 00:42:00,32.0,30.0,29.52,SSW,202,5.0,-999.0,91,-99.99,,,-99.99,,2013-02-28 05:42:00,
2013-02-28 00:52:00,31.0,29.0,29.52,SSE,162,5.0,-999.0,91,-99.99,,,-99.99,,2013-02-28 05:52:00,
2013-02-28 01:02:00,31.0,29.0,29.52,SW,229,3.0,-999.0,91,-99.99,,,-99.99,,2013-02-28 06:02:00,
2013-02-28 01:11:00,31.0,29.0,29.52,SW,229,3.0,-999.0,91,-99.99,,,-99.99,,2013-02-28 06:11:00,
2013-02-28 01:22:00,31.0,28.0,29.52,West,265,3.0,-999.0,90,-99.99,,,-99.99,,2013-02-28 06:22:00,
2013-02-28 01:32:00,31.0,28.0,29.52,SSW,209,4.0,-999.0,90,-99.99,,,-99.99,,2013-02-28 06:32:00,
2013-02-28 01:42:00,31.0,28.0,29.52,SSW,209,4.0,-999.0,90,-99.99,,,-99.99,,2013-02-28 06:42:00,
2013-02-28 01:52:00,31.0,28.0,29.52,South,182,4.0,-999.0,90,-99.99,,,-99.99,,2013-02-28 06:52:00,
2013-02-28 02:01:00,31.0,28.0,29.52,SSW,206,2.0,-999.0,90,-99.99,,,-99.99,,2013-02-28 07:01:00,
2013-02-28 02:11:00,31.0,28.0,29.52,SSW,206,2.0,-999.0,90,-99.99,,,-99.99,,2013-02-28 07:11:00,
2013-02-28 02:22:00,31.0,28.0,29.52,SW,217,3.0,-999.0,90,-99.99,,,-99.99,,2013-02-28 07:22:00,
2013-02-28 02:32:00,31.0,28.0,29.52,SSW,203,2.0,-999.0,90,-99.99,,,-99.99,,2013-02-28 07:32:00,
2013-02-28 02:42:00,31.0,28.0,29.52,SSW,203,2.0,-999.0,90,-99.99,,,-99.99,,2013-02-28 07:42:00,
2013-02-28 02:51:00,31.0,28.0,29.52,SSW,203,2.0,-999.0,90,-99.99,,,-99.99,,2013-02-28 07:51:00,
2013-02-28 03:01:00,31.0,28.0,29.52,WSW,241,1.0,-999.0,90,-99.99,,,-99.99,,2013-02-28 08:01:00,
2013-02-28 03:11:00,31.0,28.0,29.52,WSW,241,1.0,-999.0,90,-99.99,,,-99.99,,2013-02-28 08:11:00,
2013-02-28 03:22:00,31.0,28.0,29.51,SSE,167,2.0,-999.0,89,-99.99,,,-99.99,,2013-02-28 08:22:00,
2013-02-28 03:32:00,31.0,28.0,29.50,South,185,3.0,-999.0,89,-99.99,,,-99.99,,2013-02-28 08:32:00,
2013-02-28 03:42:00,31.0,28.0,29.50,South,185,3.0,-999.0,89,-99.99,,,-99.99,,2013-02-28 08:42:00,
2013-02-28 03:52:00,31.0,28.0,29.50,SSW,203,1.0,-999.0,89,-99.99,,,-99.99,,2013-02-28 08:52:00,
2013-02-28 04:03:00,31.0,28.0,29.50,SSW,200,3.0,-999.0,89,-99.99,,,-99.99,,2013-02-28 09:03:00,
2013-02-28 04:12:00,31.0,28.0,29.50,SSW,200,3.0,-999.0,89,-99.99,,,-99.99,,2013-02-28 09:12:00,
2013-02-28 04:22:00,31.0,28.0,29.50,WSW,246,3.0,-999.0,89,-99.99,,,-99.99,,2013-02-28 09:22:00,
2013-02-28 04:32:00,31.0,28.0,29.49,SSW,210,2.0,-999.0,88,-99.99,,,-99.99,,2013-02-28 09:32:00,
2013-02-28 04:42:00,31.0,28.0,29.49,SSW,210,2.0,-999.0,88,-99.99,,,-99.99,,2013-02-28 09:42:00,
2013-02-28 04:52:00,31.0,28.0,29.49,SW,233,5.0,-999.0,88,-99.99,,,-99.99,,2013-02-28 09:52:00,
2013-02-28 05:02:00,31.0,27.0,29.49,South,189,3.0,-999.0,86,-99.99,,,-99.99,,2013-02-28 10:02:00,
2013-02-28 05:12:00,31.0,27.0,29.49,South,189,3.0,-999.0,86,-99.99,,,-99.99,,2013-02-28 10:12:00,
2013-02-28 05:22:00,31.0,27.0,29.49,SSW,195,3.0,-999.0,86,-99.99,,,-99.99,,2013-02-28 10:22:00,
2013-02-28 05:32:00,31.0,27.0,29.49,SW,233,4.0,-999.0,86,-99.99,,,-99.99,,2013-02-28 10:32:00,
2013-02-28 05:42:00,31.0,27.0,29.49,SW,233,4.0,-999.0,86,-99.99,,,-99.99,,2013-02-28 10:42:00,
2013-02-28 05:52:00,31.0,27.0,29.49,SW,219,3.0,-999.0,86,-99.99,,,-99.99,,2013-02-28 10:52:00,
2013-02-28 06:02:00,31.0,27.0,29.49,South,188,4.0,-999.0,85,-99.99,,,-99.99,,2013-02-28 11:02:00,
2013-02-28 06:11:00,31.0,27.0,29.49,South,188,4.0,-999.0,85,-99.99,,,-99.99,,2013-02-28 11:11:00,
2013-02-28 06:22:00,31.0,27.0,29.50,SSE,167,4.0,-999.0,85,-99.99,,,-99.99,,2013-02-28 11:22:00,
2013-02-28 06:32:00,31.0,27.0,29.50,WSW,256,2.0,-999.0,85,-99.99,,,-99.99,,2013-02-28 11:32:00,
2013-02-28 06:42:00,31.0,27.0,29.50,WSW,256,2.0,-999.0,85,-99.99,,,-99.99,,2013-02-28 11:42:00,
2013-02-28 06:52:00,31.0,27.0,29.51,WSW,240,2.0,-999.0,84,-99.99,,,-99.99,,2013-02-28 11:52:00,
2013-02-28 07:02:00,31.0,27.0,29.50,SSW,195,2.0,-999.0,84,-99.99,,,-99.99,,2013-02-28 12:02:00,
2013-02-28 07:12:00,31.0,27.0,29.50,SSW,195,2.0,-999.0,84,-99.99,,,-99.99,,2013-02-28 12:12:00,
2013-02-28 07:22:00,30.0,25.0,29.51,SSW,200,2.0,-999.0,83,-99.99,,,-99.99,,2013-02-28 12:22:00,
2013-02-28 07:32:00,30.0,25.0,29.51,WSW,240,4.0,-999.0,82,-99.99,,,-99.99,,2013-02-28 12:32:00,
2013-02-28 07:42:00,30.0,25.0,29.51,WSW,240,4.0,-999.0,82,-99.99,,,-99.99,,2013-02-28 12:42:00,
2013-02-28 07:52:00,30.0,25.0,29.51,SSW,206,3.0,-999.0,81,-99.99,,,-99.99,,2013-02-28 12:52:00,
2013-02-28 08:02:00,30.0,25.0,29.51,WSW,248,4.0,-999.0,81,-99.99,,,-99.99,,2013-02-28 13:02:00,
2013-02-28 08:12:00,30.0,25.0,29.51,WSW,248,4.0,-999.0,81,-99.99,,,-99.99,,2013-02-28 13:12:00,
2013-02-28 08:22:00,31.0,26.0,29.52,WSW,240,3.0,-999.0,82,-99.99,,,-99.99,,2013-02-28 13:22:00,
2013-02-28 08:32:00,31.0,26.0,29.52,SW,222,3.0,-999.0,82,-99.99,,,-99.99,,2013-02-28 13:32:00,
2013-02-28 08:42:00,31.0,26.0,29.52,SW,222,3.0,-999.0,82,-99.99,,,-99.99,,2013-02-28 13:42:00,
2013-02-28 08:52:00,31.0,26.0,29.52,SSW,205,2.0,-999.0,83,-99.99,,,-99.99,,2013-02-28 13:52:00,
2013-02-28 09:02:00,31.0,27.0,29.53,SSW,196,2.0,-999.0,84,-99.99,,,-99.99,,2013-02-28 14:02:00,
2013-02-28 09:12:00,31.0,27.0,29.53,SSW,196,2.0,-999.0,84,-99.99,,,-99.99,,2013-02-28 14:12:00,
2013-02-28 09:22:00,31.0,27.0,29.53,SSW,199,3.0,-999.0,84,-99.99,,,-99.99,,2013-02-28 14:22:00,
2013-02-28 09:32:00,31.0,27.0,29.53,SSW,192,2.0,-999.0,85,-99.99,,,-99.99,,2013-02-28 14:32:00,
2013-02-28 09:42:00,31.0,27.0,29.53,SSW,192,2.0,-999.0,85,-99.99,,,-99.99,,2013-02-28 14:42:00,
2013-02-28 09:52:00,31.0,28.0,29.53,SW,226,4.0,-999.0,87,-99.99,,,-99.99,,2013-02-28 14:52:00,
2013-02-28 10:02:00,31.0,28.0,29.52,SSW,209,5.0,-999.0,88,-99.99,,,-99.99,,2013-02-28 15:02:00,
2013-02-28 10:11:00,31.0,28.0,29.52,SSW,209,5.0,-999.0,88,-99.99,,,-99.99,,2013-02-28 15:11:00,
2013-02-28 10:22:00,31.0,28.0,29.53,South,188,4.0,-999.0,88,-99.99,,,-99.99,,2013-02-28 15:22:00,
2013-02-28 10:32:00,31.0,28.0,29.53,SSW,196,3.0,-999.0,89,-99.99,,,-99.99,,2013-02-28 15:32:00,
2013-02-28 10:42:00,31.0,28.0,29.53,SSW,196,3.0,-999.0,89,-99.99,,,-99.99,,2013-02-28 15:42:00,
2013-02-28 10:52:00,31.0,28.0,29.53,SW,220,4.0,-999.0,89,-99.99,,,-99.99,,2013-02-28 15:52:00,
2013-02-28 11:02:00,31.0,28.0,29.53,SW,229,3.0,-999.0,88,-99.99,,,-99.99,,2013-02-28 16:02:00,
2013-02-28 11:12:00,31.0,28.0,29.53,SW,229,3.0,-999.0,88,-99.99,,,-99.99,,2013-02-28 16:12:00,
2013-02-28 11:22:00,31.0,28.0,29.54,SW,226,2.0,-999.0,88,-99.99,,,-99.99,,2013-02-28 16:22:00,
2013-02-28 11:32:00,31.0,28.0,29.54,SW,232,2.0,-999.0,88,-99.99,,,-99.99,,2013-02-28 16:32:00,
2013-02-28 11:42:00,31.0,28.0,29.54,SW,232,2.0,-999.0,88,-99.99,,,-99.99,,2013-02-28 16:42:00,
2013-02-28 11:52:00,31.0,28.0,29.54,SW,220,2.0,-999.0,88,-99.99,,,-99.99,,2013-02-28 16:52:00,
2013-02-28 12:02:00,32.0,29.0,29.54,SW,219,2.0,-999.0,88,-99.99,,,-99.99,,2013-02-28 17:02:00,
2013-02-28 12:12:00,32.0,29.0,29.54,SW,217,3.0,-999.0,88,-99.99,,,-99.99,,2013-02-28 17:12:00,
2013-02-28 12:22:00,32.0,29.0,29.54,SW,217,3.0,-999.0,88,-99.99,,,-99.99,,2013-02-28 17:22:00,
2013-02-28 12:32:00,33.0,30.0,29.54,SSW,198,2.0,-999.0,87,-99.99,,,-99.99,,2013-02-28 17:32:00,
2013-02-28 12:42:00,33.0,30.0,29.54,SSW,198,2.0,-999.0,87,-99.99,,,-99.99,,2013-02-28 17:42:00,
2013-02-28 12:52:00,33.0,29.0,29.54,South,191,2.0,-999.0,86,-99.99,,,-99.99,,2013-02-28 17:52:00,
2013-02-28 13:02:00,32.0,28.0,29.54,SSW,192,2.0,-999.0,86,-99.99,,,-99.99,,2013-02-28 18:02:00,
2013-02-28 13:12:00,32.0,28.0,29.54,SSW,192,2.0,-999.0,86,-99.99,,,-99.99,,2013-02-28 18:12:00,
2013-02-28 13:22:00,32.0,28.0,29.54,SSW,199,2.0,-999.0,86,-99.99,,,-99.99,,2013-02-28 18:22:00,
2013-02-28 13:32:00,32.0,29.0,29.54,SSW,202,1.0,-999.0,88,-99.99,,,-99.99,,2013-02-28 18:32:00,
2013-02-28 13:42:00,32.0,29.0,29.54,SSW,202,1.0,-999.0,88,-99.99,,,-99.99,,2013-02-28 18:42:00,
2013-02-28 13:52:00,32.0,29.0,29.54,WSW,253,2.0,-999.0,89,-99.99,,,-99.99,,2013-02-28 18:52:00,
2013-02-28 14:02:00,32.0,29.0,29.54,SSW,213,2.0,-999.0,89,-99.99,,,-99.99,,2013-02-28 19:02:00,
2013-02-28 14:12:00,32.0,29.0,29.54,SSW,213,2.0,-999.0,89,-99.99,,,-99.99,,2013-02-28 19:12:00,
2013-02-28 14:22:00,33.0,30.0,29.54,SW,227,1.0,-999.0,89,-99.99,,,-99.99,,2013-02-28 19:22:00,
2013-02-28 14:32:00,33.0,30.0,29.54,West,260,1.0,-999.0,89,-99.99,,,-99.99,,2013-02-28 19:32:00,
2013-02-28 14:42:00,33.0,30.0,29.54,West,260,1.0,-999.0,89,-99.99,,,-99.99,,2013-02-28 19:42:00,
2013-02-28 14:52:00,32.0,29.0,29.55,West,261,0.0,-999.0,89,-99.99,,,-99.99,,2013-02-28 19:52:00,
2013-02-28 15:01:00,32.0,29.0,29.55,West,261,1.0,-999.0,89,-99.99,,,-99.99,,2013-02-28 20:01:00,
2013-02-28 15:12:00,32.0,29.0,29.55,West,261,1.0,-999.0,89,-99.99,,,-99.99,,2013-02-28 20:12:00,
2013-02-28 15:22:00,32.0,29.0,29.56,West,261,1.0,-999.0,89,-99.99,,,-99.99,,2013-02-28 20:22:00,
2013-02-28 15:32:00,32.0,29.0,29.56,NW,316,0.0,-999.0,89,-99.99,,,-99.99,,2013-02-28 20:32:00,
2013-02-28 15:42:00,32.0,29.0,29.56,NW,316,0.0,-999.0,89,-99.99,,,-99.99,,2013-02-28 20:42:00,
2013-02-28 15:52:00,32.0,29.0,29.57,West,268,1.0,-999.0,89,-99.99,,,-99.99,,2013-02-28 20:52:00,
2013-02-28 16:02:00,32.0,29.0,29.57,WNW,294,1.0,-999.0,89,-99.99,,,-99.99,,2013-02-28 21:02:00,
2013-02-28 16:11:00,32.0,29.0,29.57,WNW,294,1.0,-999.0,89,-99.99,,,-99.99,,2013-02-28 21:11:00,
2013-02-28 16:22:00,32.0,29.0,29.57,NW,325,1.0,-999.0,89,-99.99,,,-99.99,,2013-02-28 21:22:00,
2013-02-28 16:32:00,32.0,29.0,29.58,NW,312,2.0,-999.0,89,-99.99,,,-99.99,,2013-02-28 21:32:00,
2013-02-28 16:42:00,32.0,29.0,29.58,NW,312,2.0,-999.0,89,-99.99,,,-99.99,,2013-02-28 21:42:00,
2013-02-28 16:52:00,32.0,29.0,29.59,WNW,302,1.0,-999.0,89,-99.99,,,-99.99,,2013-02-28 21:52:00,
2013-02-28 17:02:00,32.0,29.0,29.59,NW,311,4.0,-999.0,89,-99.99,,,-99.99,,2013-02-28 22:02:00,
2013-02-28 17:11:00,32.0,29.0,29.59,NW,311,4.0,-999.0,89,-99.99,,,-99.99,,2013-02-28 22:11:00,
2013-02-28 17:22:00,32.0,29.0,29.60,NW,304,2.0,-999.0,89,-99.99,,,-99.99,,2013-02-28 22:22:00,
2013-02-28 17:32:00,31.0,28.0,29.60,NW,319,3.0,-999.0,90,-99.99,,,-99.99,,2013-02-28 22:32:00,
2013-02-28 17:42:00,31.0,28.0,29.60,NW,319,3.0,-999.0,90,-99.99,,,-99.99,,2013-02-28 22:42:00,
2013-02-28 17:52:00,31.0,28.0,29.61,NW,305,3.0,-999.0,90,-99.99,,,-99.99,,2013-02-28 22:52:00,
2013-02-28 18:02:00,31.0,28.0,29.62,NW,318,3.0,-999.0,90,-99.99,,,-99.99,,2013-02-28 23:02:00,
2013-02-28 18:12:00,31.0,28.0,29.62,NW,318,3.0,-999.0,90,-99.99,,,-99.99,,2013-02-28 23:12:00,
2013-02-28 18:22:00,31.0,28.0,29.63,NW,311,2.0,-999.0,90,-99.99,,,-99.99,,2013-02-28 23:22:00,
2013-02-28 18:32:00,32.0,29.0,29.64,West,281,1.0,-999.0,90,-99.99,,,-99.99,,2013-02-28 23:32:00,
2013-02-28 18:42:00,32.0,29.0,29.64,West,281,1.0,-999.0,90,-99.99,,,-99.99,,2013-02-28 23:42:00,
2013-02-28 18:52:00,31.0,28.0,29.65,WNW,294,2.0,-999.0,90,-99.99,,,-99.99,,2013-02-28 23:52:00,
2013-02-28 19:02:00,31.0,28.0,29.66,WNW,288,3.0,-999.0,90,-99.99,,,-99.99,,2013-03-01 00:02:00,
2013-02-28 19:11:00,31.0,28.0,29.66,WNW,288,3.0,-999.0,90,-99.99,,,-99.99,,2013-03-01 00:11:00,
2013-02-28 19:22:00,31.0,28.0,29.66,NW,320,3.0,-999.0,90,-99.99,,,-99.99,,2013-03-01 00:22:00,
2013-02-28 19:32:00,31.0,28.0,29.67,NW,312,4.0,-999.0,90,-99.99,,,-99.99,,2013-03-01 00:32:00,
2013-02-28 19:42:00,31.0,28.0,29.67,NW,312,4.0,-999.0,90,-99.99,,,-99.99,,2013-03-01 00:42:00,
2013-02-28 19:51:00,31.0,28.0,29.67,NNW,340,3.0,-999.0,90,-99.99,,,-99.99,,2013-03-01 00:51:00,
2013-02-28 20:01:00,31.0,29.0,29.68,North,0,3.0,-999.0,91,-99.99,,,-99.99,,2013-03-01 01:01:00,
2013-02-28 20:11:00,31.0,29.0,29.68,North,0,3.0,-999.0,91,-99.99,,,-99.99,,2013-03-01 01:11:00,
2013-02-28 20:22:00,31.0,29.0,29.69,NW,320,3.0,-999.0,91,-99.99,,,-99.99,,2013-03-01 01:22:00,
2013-02-28 20:32:00,31.0,29.0,29.69,WNW,302,2.0,-999.0,91,-99.99,,,-99.99,,2013-03-01 01:32:00,
2013-02-28 20:42:00,31.0,29.0,29.69,WNW,302,2.0,-999.0,91,-99.99,,,-99.99,,2013-03-01 01:42:00,
2013-02-28 20:52:00,31.0,29.0,29.70,NNW,337,5.0,-999.0,91,-99.99,,,-99.99,,2013-03-01 01:52:00,
2013-02-28 21:01:00,31.0,29.0,29.70,West,267,2.0,-999.0,91,-99.99,,,-99.99,,2013-03-01 02:01:00,
2013-02-28 21:11:00,31.0,29.0,29.70,West,267,2.0,-999.0,91,-99.99,,,-99.99,,2013-03-01 02:11:00,
2013-02-28 21:22:00,31.0,29.0,29.71,NW,312,3.0,-999.0,91,-99.99,,,-99.99,,2013-03-01 02:22:00,
2013-02-28 21:32:00,31.0,29.0,29.71,NW,320,5.0,-999.0,92,-99.99,,,-99.99,,2013-03-01 02:32:00,
2013-02-28 21:42:00,31.0,29.0,29.71,NW,320,5.0,-999.0,92,-99.99,,,-99.99,,2013-03-01 02:42:00,
2013-02-28 21:52:00,31.0,29.0,29.72,NW,306,4.0,-999.0,92,-99.99,,,-99.99,,2013-03-01 02:52:00,
2013-02-28 22:02:00,31.0,29.0,29.72,WNW,302,5.0,-999.0,92,-99.99,,,-99.99,,2013-03-01 03:02:00,
2013-02-28 22:12:00,31.0,29.0,29.72,WNW,302,5.0,-999.0,92,-99.99,,,-99.99,,2013-03-01 03:12:00,
2013-02-28 22:22:00,31.0,29.0,29.72,NNW,336,4.0,-999.0,92,-99.99,,,-99.99,,2013-03-01 03:22:00,
2013-02-28 22:32:00,30.0,28.0,29.73,NW,320,4.0,-999.0,92,-99.99,,,-99.99,,2013-03-01 03:32:00,
2013-02-28 22:42:00,30.0,28.0,29.73,NW,320,4.0,-999.0,92,-99.99,,,-99.99,,2013-03-01 03:42:00,
2013-02-28 22:52:00,30.0,28.0,29.73,NNW,332,4.0,-999.0,92,-99.99,,,-99.99,,2013-03-01 03:52:00,
2013-02-28 23:01:00,30.0,28.0,29.74,NW,325,5.0,-999.0,92,-99.99,,,-99.99,,2013-03-01 04:01:00,
2013-02-28 23:12:00,30.0,28.0,29.74,NW,325,5.0,-999.0,92,-99.99,,,-99.99,,2013-03-01 04:12:00,
2013-02-28 23:22:00,30.0,28.0,29.74,NW,326,6.0,-999.0,92,-99.99,,,-99.99,,2013-03-01 04:22:00,
2013-02-28 23:32:00,30.0,28.0,29.74,NW,316,4.0,-999.0,92,-99.99,,,-99.99,,2013-03-01 04:32:00,
2013-02-28 23:42:00,30.0,28.0,29.74,NW,316,4.0,-999.0,92,-99.99,,,-99.99,,2013-03-01 04:42:00,
2013-02-28 23:52:00,30.0,28.0,29.74,NNW,336,4.0,-999.0,92,-99.99,,,-99.99,,2013-03-01 04:52:00,